Weather History for Clinton, IA

Change the Weather History Date:

Tuesday, February 5, 2013

  Actual Average Record
Temperature  
Mean Temperature 22 °F -  
Max Temperature 33 °F 29 °F 55 °F (1990)
Min Temperature 12 °F 13 °F -24 °F (1979)
Degree Days  
Heating Degree Days 42    
Moisture  
Dew Point 19 °F    
Average Humidity 77    
Maximum Humidity 86    
Minimum Humidity 64    
Precipitation  
Precipitation 0.00 in - - ()
Sea Level Pressure  
Sea Level Pressure 29.93 in    
Wind  
Wind Speed 8 mph (West)    
Max Wind Speed 21 mph    
Max Gust Speed 24 mph    
Visibility 9 miles    
Events      
Averages and records for this station are not official NWS values.
T = Trace of Precipitation, MM = Missing Value Source: NWS Daily Summary

Daily Weather History Graph

Daily Weather History Graph

Search for Another Location

Airport:

Trip Planner

Search our weather history database for the weather conditions in past years. The results will help you decide how hot, cold, wet, or windy it might be!

Date:

Astronomy

Feb. 05, 2013 Rise Set
Actual Time 7:09 AM CST 5:22 PM CST
Civil Twilight 6:39 AM CST 5:51 PM CST
Nautical Twilight 6:06 AM CST 6:24 PM CST
Astronomical Twilight 5:34 AM CST 6:56 PM CST
Moon 2:52 AM CST (2/5) 12:38 PM CST (2/5)
Length of Visible Light 11h 11m
Length of Day
10h 13m
Waning Crescent, 26% of the Moon is Illuminated
Feb 5
Waning Crescent
Feb 10
New
Feb 17
First Quarter
Feb 25
Full
Mar 4
Last Quarter

Hourly Weather History & Observations

Time (CST) Temp. Windchill Dew Point Humidity Pressure Visibility Wind Dir Wind Speed Gust Speed Precip Events Conditions
12:15 AM 14.0 °F 5.1 °F 10.4 °F 86% 29.96 in 10.0 mi SSE 5.8 mph - N/A   Clear
12:35 AM 12.2 °F - 8.6 °F 85% 29.97 in 10.0 mi Calm Calm - N/A   Clear
12:55 AM 12.2 °F 6.1 °F 6.8 °F 79% 29.96 in 10.0 mi ESE 3.5 mph - N/A   Clear
1:15 AM 12.2 °F - 8.6 °F 85% 29.95 in 10.0 mi Calm Calm - N/A   Scattered Clouds
1:35 AM 12.2 °F 6.1 °F 8.6 °F 85% 29.95 in 10.0 mi SSE 3.5 mph - N/A   Partly Cloudy
1:55 AM 14.0 °F 6.5 °F 8.6 °F 79% 29.94 in 10.0 mi SSE 4.6 mph - N/A   Clear
2:15 AM 12.2 °F 4.3 °F 8.6 °F 85% 29.94 in 10.0 mi SSE 4.6 mph - N/A   Clear
2:35 AM 14.0 °F 6.5 °F 8.6 °F 79% 29.94 in 10.0 mi South 4.6 mph - N/A   Clear
2:55 AM 15.8 °F 8.6 °F 8.6 °F 73% 29.94 in 10.0 mi South 4.6 mph - N/A   Mostly Cloudy
3:15 AM 15.8 °F 7.2 °F 10.4 °F 79% 29.92 in 10.0 mi South 5.8 mph - N/A   Overcast
3:35 AM 15.8 °F 6.1 °F 8.6 °F 73% 29.92 in 10.0 mi South 6.9 mph - N/A   Overcast
3:55 AM 15.8 °F 8.6 °F 8.6 °F 73% 29.92 in 10.0 mi South 4.6 mph - N/A   Mostly Cloudy
4:15 AM 15.8 °F 8.6 °F 10.4 °F 79% 29.91 in 8.0 mi South 4.6 mph - N/A   Scattered Clouds
4:35 AM 17.6 °F 8.2 °F 12.2 °F 79% 29.89 in 5.0 mi SSE 6.9 mph - N/A   Mostly Cloudy
4:55 AM 17.6 °F 8.2 °F 12.2 °F 79% 29.89 in 10.0 mi South 6.9 mph - N/A   Partly Cloudy
5:15 AM 17.6 °F 9.3 °F 12.2 °F 79% 29.89 in 10.0 mi South 5.8 mph - N/A   Clear
5:35 AM 17.6 °F 9.3 °F 12.2 °F 79% 29.88 in 10.0 mi South 5.8 mph - N/A   Mostly Cloudy
5:55 AM 19.4 °F 10.4 °F 14.0 °F 80% 29.88 in 10.0 mi South 6.9 mph - N/A   Mostly Cloudy
6:15 AM 19.4 °F 9.5 °F 14.0 °F 80% 29.87 in 10.0 mi South 8.1 mph - N/A   Scattered Clouds
6:35 AM 19.4 °F 9.5 °F 14.0 °F 80% 29.87 in 10.0 mi South 8.1 mph - N/A   Clear
6:55 AM 19.4 °F 9.5 °F 15.8 °F 86% 29.87 in 10.0 mi South 8.1 mph - N/A   Clear
7:15 AM 19.4 °F 9.5 °F 15.8 °F 86% 29.86 in 7.0 mi South 8.1 mph - N/A   Clear
7:35 AM 19.4 °F 8.6 °F 15.8 °F 86% 29.85 in 6.0 mi South 9.2 mph - N/A   Clear
7:55 AM 19.4 °F 10.4 °F 15.8 °F 86% 29.86 in 5.0 mi SSW 6.9 mph - N/A   Clear
8:15 AM 21.2 °F 10.1 °F 17.6 °F 86% 29.85 in 5.0 mi SSW 10.4 mph - N/A   Clear
8:35 AM 23.0 °F 11.1 °F 17.6 °F 80% 29.85 in 5.0 mi SSW 12.7 mph - N/A   Clear
8:55 AM 24.8 °F 12.4 °F 19.4 °F 80% 29.84 in 5.0 mi SW 15.0 mph - N/A   Clear
9:15 AM 26.6 °F 15.7 °F 19.4 °F 74% 29.84 in 5.0 mi SW 12.7 mph - N/A   Clear
9:35 AM 26.6 °F 14.3 °F 19.4 °F 74% 29.83 in 6.0 mi WSW 16.1 mph - N/A   Clear
9:55 AM 26.6 °F 14.3 °F 19.4 °F 74% 29.83 in 6.0 mi WSW 16.1 mph - N/A   Partly Cloudy
10:15 AM 26.6 °F 13.4 °F 19.4 °F 74% 29.83 in 6.0 mi WSW 18.4 mph - N/A   Scattered Clouds
10:35 AM 26.6 °F 14.7 °F 21.2 °F 80% 29.83 in 7.0 mi WSW 15.0 mph - N/A   Scattered Clouds
10:55 AM 28.4 °F 17.5 °F 21.2 °F 74% 29.84 in 7.0 mi West 13.8 mph - N/A   Mostly Cloudy
11:15 AM 28.4 °F 17.5 °F 23.0 °F 80% 29.84 in 8.0 mi West 13.8 mph - N/A   Mostly Cloudy
11:35 AM 28.4 °F 16.6 °F 21.2 °F 74% 29.85 in 8.0 mi West 16.1 mph - N/A   Mostly Cloudy
11:55 AM 30.2 °F 18.1 °F 23.0 °F 75% 29.84 in 8.0 mi West 18.4 mph - N/A   Mostly Cloudy
12:15 PM 30.2 °F 17.8 °F 23.0 °F 75% 29.84 in 8.0 mi West 19.6 mph 24.2 mph N/A   Scattered Clouds
12:35 PM 30.2 °F 18.1 °F 23.0 °F 75% 29.85 in 7.0 mi WNW 18.4 mph - N/A   Mostly Cloudy
12:55 PM 30.2 °F 19.8 °F 23.0 °F 75% 29.85 in 8.0 mi West 13.8 mph - N/A   Overcast
1:15 PM 30.2 °F 18.9 °F 24.8 °F 80% 29.86 in 7.0 mi WNW 16.1 mph - N/A   Mostly Cloudy
1:35 PM 30.2 °F 20.8 °F 24.8 °F 80% 29.86 in 6.0 mi WNW 11.5 mph - N/A   Mostly Cloudy
1:55 PM 30.2 °F 18.5 °F 24.8 °F 80% 29.86 in 1.5 mi West 17.3 mph - N/A   Mostly Cloudy
2:15 PM 30.2 °F 19.3 °F 26.6 °F 86% 29.87 in 5.0 mi WNW 15.0 mph - N/A   Mostly Cloudy
2:35 PM 32.0 °F 22.1 °F 26.6 °F 80% 29.88 in 7.0 mi WNW 13.8 mph - N/A   Overcast
2:55 PM 32.0 °F 21.6 °F 26.6 °F 80% 29.89 in 7.0 mi WNW 15.0 mph - N/A   Overcast
3:15 PM 32.0 °F 19.8 °F 24.8 °F 75% 29.91 in 9.0 mi NW 20.7 mph - N/A   Overcast
3:35 PM 32.0 °F 21.2 °F 24.8 °F 75% 29.92 in 8.0 mi NW 16.1 mph - N/A   Overcast
3:55 PM 32.0 °F 21.6 °F 24.8 °F 75% 29.93 in 10.0 mi NW 15.0 mph - N/A   Overcast
4:15 PM 32.0 °F 23.6 °F 24.8 °F 75% 29.94 in 10.0 mi NW 10.4 mph - N/A   Overcast
4:35 PM 32.0 °F 23.6 °F 26.6 °F 80% 29.95 in 10.0 mi NW 10.4 mph - N/A   Overcast
4:55 PM 33.8 °F 25.8 °F 24.8 °F 70% 29.96 in 10.0 mi NW 10.4 mph - N/A   Overcast
5:15 PM 33.8 °F 25.8 °F 24.8 °F 70% 29.97 in 10.0 mi NW 10.4 mph 16.1 mph N/A   Overcast
5:35 PM 33.8 °F 25.3 °F 24.8 °F 70% 29.97 in 10.0 mi NW 11.5 mph - N/A   Overcast
5:55 PM 33.8 °F 26.4 °F 24.8 °F 70% 29.98 in 10.0 mi WNW 9.2 mph - N/A   Overcast
6:15 PM 33.8 °F 23.2 °F 26.6 °F 75% 29.99 in 10.0 mi WNW 17.3 mph - N/A   Overcast
6:35 PM 33.8 °F 23.2 °F 24.8 °F 70% 29.99 in 10.0 mi NW 17.3 mph - N/A   Overcast
6:55 PM 33.8 °F 23.5 °F 24.8 °F 70% 30.00 in 10.0 mi NW 16.1 mph - N/A   Overcast
7:15 PM 33.8 °F 25.3 °F 24.8 °F 70% 30.01 in 10.0 mi NW 11.5 mph - N/A   Overcast
7:35 PM 33.8 °F 24.8 °F 24.8 °F 70% 30.02 in 10.0 mi NNW 12.7 mph - N/A   Overcast
7:55 PM 32.0 °F 22.1 °F 24.8 °F 75% 30.03 in 10.0 mi NNW 13.8 mph - N/A   Overcast
8:15 PM 32.0 °F 24.2 °F 23.0 °F 69% 30.04 in 10.0 mi NNW 9.2 mph - N/A   Overcast
8:35 PM 32.0 °F 24.8 °F 23.0 °F 69% 30.05 in 10.0 mi NNW 8.1 mph - N/A   Overcast
8:55 PM 32.0 °F 24.2 °F 21.2 °F 64% 30.05 in 10.0 mi NNW 9.2 mph - N/A   Overcast
9:15 PM 30.2 °F 20.2 °F 21.2 °F 69% 30.06 in 10.0 mi NW 12.7 mph - N/A   Overcast
9:35 PM 30.2 °F 20.8 °F 21.2 °F 69% 30.07 in 10.0 mi NW 11.5 mph - N/A   Overcast
9:55 PM 30.2 °F 22.6 °F 23.0 °F 75% 30.07 in 10.0 mi NW 8.1 mph - N/A   Overcast
10:15 PM 30.2 °F 23.4 °F 21.2 °F 69% 30.08 in 10.0 mi NNW 6.9 mph - N/A   Overcast
10:35 PM 30.2 °F 24.3 °F 23.0 °F 75% 30.09 in 10.0 mi NNW 5.8 mph - N/A   Overcast
10:55 PM 28.4 °F 21.2 °F 23.0 °F 80% 30.10 in 10.0 mi North 6.9 mph - N/A   Overcast
11:15 PM 28.4 °F 20.4 °F 21.2 °F 74% 30.11 in 10.0 mi NNE 8.1 mph - N/A   Overcast
11:35 PM 28.4 °F 20.4 °F 21.2 °F 74% 30.12 in 10.0 mi North 8.1 mph - N/A   Overcast
11:55 PM 28.4 °F 19.7 °F 19.4 °F 69% 30.12 in 10.0 mi North 9.2 mph - N/A   Overcast